Regional Weather Roundup
Issued by NWS

Home | Current Version | Previous Version | Text Only | Print | Product List | Glossary Off
Versions: 1 2 3 4 5 6 7 8 9 10 11 12 13 14 15 16 17 18 19 20 21 22 23 24 25 26 27 28 29 30 31 32 33 34 35 36 37 38 39 40 41 42 43 44 45 46 47 48 49 50

000
ASUS43 KMPX 252101
RWRMN
WEATHER ROUNDUP FOR MINNESOTA
NATIONAL WEATHER SERVICE TWIN CITIES/CHANHASSEN MN
400 PM CDT SAT APR 25 2015


NOTE: "FAIR" INDICATES FEW OR NO CLOUDS BELOW 12,000 FEET WITH NO
SIGNIFICANT WEATHER AND/OR OBSTRUCTIONS TO VISIBILITY. N/A MEANS
CURRENT SKY AND/OR WEATHER CONDITIONS ARE NOT AVAILABLE.

MNZ060>063-068>070-252200-
   Twin Cities Metro

CITY           SKY/WX    TMP DP  RH WIND       PRES   REMARKS
TWIN CITIES    MOSUNNY   60  29  30 E14G24    29.84R
ST PAUL        SUNNY     60  26  27 NE13G22   29.85S
CRYSTAL        SUNNY     62  27  26 E15       29.84S
LAKEVILLE      PTSUNNY   57  37  47 E12       29.83S
EDEN PRAIRIE   SUNNY     60  35  39 E12       29.82S
SOUTH ST PAUL  SUNNY     60  27  28 NE12G20   29.84S
LAKE ELMO      FAIR      61  27  27 E15       29.85S
$$
MNZ001>005-007-008-013>017-022>024-027-028-252200-
   Northwest Minnesota

CITY           SKY/WX    TMP DP  RH WIND       PRES   REMARKS
BEMIDJI        SUNNY     57  30  35 E9        29.91S
HALLOCK        SUNNY     64  30  27 SE15      29.88S
ROSEAU         SUNNY     61  30  31 E16G23    29.92S
WARROAD        SUNNY     55  32  41 NE16      29.94F
THIEF RVR FALL MOSUNNY   61  34  36 E7G20     29.89S
CROOKSTON      PTSUNNY   63  36  36 E7        29.88S
FOSSTON        SUNNY     63  30  29 E13G18    29.89S
DETROIT LAKES  SUNNY     59  34  38 SE9       29.89R
MOORHEAD       SUNNY     59  37  44 SE13      29.88F
PARK RAPIDS    SUNNY     59  25  27 E12       29.89S
MAHNOMEN       FAIR      59  32  36 SE9G16    29.88R
$$
MNZ006-009>011-018-025>026-252200-
   North Central Minnesota

CITY           SKY/WX    TMP DP  RH WIND       PRES   REMARKS
BAUDETTE       SUNNY     60  29  30 E13       29.94S
FLAG ISLAND    SUNNY     55  28  35 SE6       29.95S
INTL FALLS     SUNNY     54  25  32 E13       29.96F
WASKISH        MOSUNNY   63  34  34 E12G17    29.91S
BIG FORK       SUNNY     61  27  27 E3        29.92F
LONGVILLE      SUNNY     57  27  30 E7        29.91F
GRAND RAPIDS   SUNNY     54  28  37 E6        29.94S
CRANE LAKE     PTSUNNY   54  19  26 N6        29.98S
ORR            SUNNY     59  21  23 CALM      29.92S
COOK           SUNNY     55  27  33 NE7       29.95R
WALKER         FAIR      55  29  37 E10G17    29.91S
$$
MNZ012-019>021-037-252200-
   Northeast Minnesota

CITY           SKY/WX    TMP DP  RH WIND       PRES   REMARKS
DULUTH         MOSUNNY   48  20  32 E15G25    29.96S
ELY            PTSUNNY   54  14  20 NE8       29.95S
HIBBING        SUNNY     58  22  24 VRB7      29.92F
EVELETH        SUNNY     57  21  24 SE10      29.93F
DULUTH HARBOR  SUNNY     39  30  70 NE20      30.00S
TWO HARBORS    SUNNY     48  21  34 NE15G21   29.98R
SILVER BAY     SUNNY     45  16  31 NE14G21   29.99S
GRAND MARAIS     N/A     42  26  53 NE8       30.03F
G MARAIS ARPRT SUNNY     43  14  31 SE9       29.99S
$$
MNZ029>031-032-039>041-046>048-054>057-064-252200-
   West Central Minnesota

CITY           SKY/WX    TMP DP  RH WIND       PRES   REMARKS
FERGUS FALLS   MOSUNNY   57  34  41 SE13      29.88S
WHEATON        MOSUNNY   52  43  71 E12G17    29.88S
MORRIS         MOSUNNY   57  43  58 E13       29.85S
ALEXANDRIA     PTSUNNY   54  39  57 E13       29.88S
ELBOW LAKE     CLOUDY    53  40  61 E13       29.86S
WADENA         SUNNY     57  36  44 E15       29.88S
GLENWOOD       MOSUNNY   57  43  58 E12G18    29.87S
APPLETON       SUNNY     57  43  58 E12G17    29.84S
BENSON         PTSUNNY   57  37  47 SE14      29.85S
ORTONVILLE     PTSUNNY   54  41  62 E9        29.85S
MADISON        MOSUNNY   57  43  58 E15       29.84R
WILLMAR        FAIR      57  43  58 E14       29.85F
$$
MNZ033>034-036-042>043-049>051-058-059-252200-
   Central Minnesota

CITY           SKY/WX    TMP DP  RH WIND       PRES   REMARKS
ST CLOUD       SUNNY     59  35  40 NE9       29.86F
SAUK CENTRE    FAIR      56  39  53 E12       29.88R
PAYNESVILLE    SUNNY     55  38  52 NE13G20   29.86S
AITKIN         CLOUDY    57  23  26 E14       29.90S
PINE RIVER     SUNNY     55  30  38 E12G18    29.94S
BRAINERD       SUNNY     57  26  30 E10G22    29.90F
STAPLES        SUNNY     55  32  41 E8        29.89S
LONG PRAIRIE   PTSUNNY   54  37  54 NE9       29.88S
LITTLE FALLS   SUNNY     55  34  44 E8        29.89S
LITCHFIELD     SUNNY     59  37  44 E14G20    29.85S
BUFFALO        SUNNY     60  31  33 N9G17     29.85F
MAPLE LAKE     SUNNY     61  34  36 E9G17     29.86S
$$
MNZ037-044-045-052-053-252200-
   East Central Minnesota

CITY           SKY/WX    TMP DP  RH WIND       PRES   REMARKS
PRINCETON      MOSUNNY   63  30  29 NE6       29.86F
MORA           MOSUNNY   55  32  41 NE7       29.90S
CAMBRIDGE      CLOUDY    63  37  39 NE8       29.84F
RUSH CITY      CLOUDY    61  26  25 E13       29.87S
MOOSE LAKE     CLOUDY    46  28  49 NE10G18   29.92S
HINCKLEY       CLOUDY    55  32  41 NE16      29.89R
CLOQUET        SUNNY     48  21  34 E13       29.95S
MCGREGOR       CLOUDY    55  28  35 E15       29.93R
$$
MNZ071>073-080-081-089-090-097-098-252200-
   Southwest Minnesota

CITY           SKY/WX    TMP DP  RH WIND       PRES   REMARKS
MONTEVIDEO     PTSUNNY   59  43  55 SE12G20   29.85R
GRANITE FALLS  MOSUNNY   58  39  48 E14       29.84S
CANBY          CLOUDY    59  40  48 E13       29.83S
MARSHALL       PTSUNNY   57  37  47 E14       29.81S
REDWOOD FALLS  CLOUDY    58  39  49 E13G21    29.83R
OLIVIA         MOSUNNY   57  36  44 E8G17     29.83R
PIPESTONE      PTSUNNY   57  39  51 E14       29.79S
WINDOM         CLOUDY    55  39  54 NE12      29.82R
WORTHINGTON    PTSUNNY   55  39  54 E15       29.80S
JACKSON        CLOUDY    55  37  50 E15G21    29.81R
TRACY          PTSUNNY   59  40  48 E12G20    29.82S
SLAYTON        CLOUDY    56  38  52 E18       29.82R
$$
MNZ065>067-074>077-082>085-091>093-252200-
   South Central Minnesota

CITY           SKY/WX    TMP DP  RH WIND       PRES   REMARKS
MANKATO        CLOUDY    55  37  50 E14G22    29.83F
NEW ULM        CLOUDY    54  37  54 E13       29.84R
ST JAMES       PTSUNNY   57  39  51 NE15      29.84R
FAIRMONT       PTSUNNY   55  37  50 E15       29.81R
GLENCOE        MOSUNNY   60  40  47 NE7G16    29.83S
FARIBAULT      CLOUDY    54  39  58 E10G16    29.84R
OWATONNA       CLOUDY    54  37  54 E14       29.83S
WASECA         CLOUDY    52  39  62 NE17      29.84R
ALBERT LEA     CLOUDY    52  41  66 NE20      29.81R
$$
MNZ078>079-086>088-094>096-252200-
   Southeast Minnesota

CITY           SKY/WX    TMP DP  RH WIND       PRES   REMARKS
ROCHESTER      CLOUDY    53  39  59 E16       29.83R
RED WING       PTSUNNY   59  27  29 E8G18     29.83R
STANTON        CLOUDY    57  36  45 E12       29.82S
DODGE CENTER   CLOUDY    52  39  62 E16       29.82S
WINONA         PTSUNNY   55  34  44 E9        29.82F
AUSTIN         CLOUDY    52  39  62 E15       29.81R
PRESTON        CLOUDY    51  36  57 NE10G20   29.82R
$$
ABBREVIATIONS USED IN REMARKS
   TC - TEMPERATURES IN CELSIUS
  WCI - WIND CHILL INDEX
   HX - HEAT INDEX
  VSB - VISIBILITY
$$



USA.gov is the U.S. government's official web portal to all federal, state and local government web resources and services.